Location: Ferchesar
(52.6477°N, 12.4298°E)
Time: 20:31:16
(UTC+02:00)

A-11 Canister half - Pass Details

Date: 09 March 2021
Orbit: 1525 x 1683 km, 47.3° (Epoch: 11 April)

Event Time Altitude Azimuth Distance (km) Brightness Sun altitude
Exits shadow 03:52:56 35° 210° (SSW) 2,353 9.5 -25.2°
Maximum altitude 03:56:43 52° 158° (SSE) 1,903 9.4 -24.7°
Drops below altitude 10° 04:05:43 10° 86° (E) 3,731 12.0 -23.4°
Sets 04:08:49 0° 82° (E) 4,701 12.8 -23.0°
